Location: Unspecified
(0.0000°N, 0.0000°E)
Time: 11:05:48
(UTC+00:00)

Kosmos-2233 - Pass Details

Date: 23 February 2024
Orbit: 950 x 1007 km, 82.9° (Epoch: 25 April)

Event Time Altitude Azimuth Distance (km) Brightness Sun altitude
Rises 19:21:19 0° 178° (S) 3,623 8.6 -16.7°
Reaches altitude 10° 19:23:50 10° 175° (S) 2,678 7.9 -17.3°
Maximum altitude 19:29:54 67° 93° (E) 1,035 5.4 -18.8°
Drops below altitude 10° 19:36:00 10° 11° (NNE) 2,697 7.6 -20.3°
Sets 19:38:31 0° 9° (N) 3,649 8.3 -21.0°
